Change the Weather History Date:

Friday, December 13, 2013

  Actual Average Record
Temperature  
Mean Temperature 20 °F 24 °F  
Max Temperature 34 °F 38 °F 65 °F (1988)
Min Temperature 6 °F 10 °F -18 °F (1917)
Degree Days  
Heating Degree Days 45 41  
Month to date heating degree days 693 516  
Since 1 July heating degree days 2329 2200  
Cooling Degree Days 0 0  
Month to date cooling degree days 0 0  
Year to date cooling degree days 917 712  
Moisture  
Dew Point 19 °F    
Average Humidity 77    
Maximum Humidity 92    
Minimum Humidity 62    
Precipitation  
Precipitation T in 0.02 in 0.18 in (1922)
Month to date precipitation T 0.22  
Year to date precipitation 19.10 17.75  
Sea Level Pressure  
Sea Level Pressure 30.12 in    
Wind  
Wind Speed 5 mph (West)    
Max Wind Speed 14 mph    
Max Gust Speed 16 mph    
Visibility 6 miles    
Events Snow    
T = Trace of Precipitation, MM = Missing Value Source: NWS Daily Summary

Daily Weather History Graph

Daily Weather History Graph

Search for Another Location

Airport or City:

Trip Planner

Search our weather history database for the weather conditions in past years. The results will help you decide how hot, cold, wet, or windy it might be!

Date:

Astronomy

Dec. 13, 2013 Rise Set
Actual Time 7:14 AM MST 4:18 PM MST
Civil Twilight 6:42 AM MST 4:50 PM MST
Nautical Twilight 6:07 AM MST 5:26 PM MST
Astronomical Twilight 5:32 AM MST 6:00 PM MST
Moon 2:06 PM MST (12/13) 3:36 AM MST (12/13)
Length of Visible Light 10h 08m
Length of Day
9h 03m
Waxing Gibbous, 88% of the Moon is Illuminated
Dec 13
Waxing Gibbous
Dec 17
Full
Dec 25
Last Quarter
Jan 1
New
Jan 7
First Quarter

Hourly Weather History & Observations

Time (MST) Temp. Windchill Dew Point Humidity Pressure Visibility Wind Dir Wind Speed Gust Speed Precip Events Conditions
12:53 AM 8.1 °F 1.4 °F 5.0 °F 87% 30.04 in 10.0 mi SSW 3.5 mph - N/A   Clear
1:53 AM 9.0 °F - 5.0 °F 84% 30.02 in 10.0 mi Calm Calm - N/A   Clear
2:53 AM 9.0 °F -0.9 °F 5.0 °F 84% 30.02 in 10.0 mi SSW 5.8 mph - N/A   Clear
3:53 AM 10.9 °F 4.7 °F 6.1 °F 81% 30.00 in 10.0 mi Variable 3.5 mph - N/A   Clear
4:53 AM 14.0 °F 6.5 °F 9.0 °F 80% 30.00 in 10.0 mi SW 4.6 mph - N/A   Clear
5:53 AM 17.1 °F 6.6 °F 10.0 °F 74% 30.01 in 10.0 mi WSW 8.1 mph - N/A   Clear
6:53 AM 15.1 °F 7.7 °F 8.1 °F 74% 30.04 in 10.0 mi SW 4.6 mph - N/A   Clear
7:53 AM 24.1 °F 14.4 °F 14.0 °F 65% 30.05 in 10.0 mi West 9.2 mph - N/A   Clear
8:53 AM 24.1 °F 15.2 °F 16.0 °F 71% 30.08 in 10.0 mi WSW 8.1 mph - N/A   Clear
9:53 AM 27.0 °F 19.5 °F 19.0 °F 72% 30.09 in 10.0 mi SW 6.9 mph - N/A   Clear
10:53 AM 30.0 °F 25.2 °F 21.0 °F 69% 30.09 in 10.0 mi West 4.6 mph - N/A   Partly Cloudy
11:53 AM 33.1 °F 26.1 °F 24.1 °F 70% 30.07 in 10.0 mi WNW 8.1 mph - N/A   Overcast
12:53 PM 34.0 °F 29.8 °F 24.1 °F 67% 30.06 in 10.0 mi NW 4.6 mph - N/A   Clear
1:53 PM 34.0 °F 26.6 °F 23.0 °F 64% 30.08 in 10.0 mi NNW 9.2 mph - N/A   Clear
2:53 PM 32.0 °F 24.8 °F 21.9 °F 66% 30.12 in 10.0 mi North 8.1 mph - N/A   Overcast
3:53 PM 28.0 °F 21.7 °F 21.9 °F 78% 30.16 in 10.0 mi North 5.8 mph - N/A   Mostly Cloudy
4:53 PM 27.0 °F 18.0 °F 21.0 °F 78% 30.18 in 10.0 mi ENE 9.2 mph - N/A   Overcast
5:53 PM 27.0 °F 19.5 °F 19.9 °F 75% 30.21 in 10.0 mi ENE 6.9 mph - N/A   Overcast
6:29 PM 26.6 °F 20.0 °F 21.2 °F 80% 30.08 in 2.0 mi ENE 5.8 mph - 0.00 in Snow Light Snow
6:34 PM 26.6 °F 19.1 °F 21.2 °F 80% 30.08 in 1.5 mi East 6.9 mph - 0.00 in Snow Light Snow
6:53 PM 25.0 °F 18.1 °F 21.9 °F 88% 30.26 in 1.8 mi ENE 5.8 mph - 0.00 in Snow Light Snow
7:18 PM 24.8 °F 17.9 °F 21.2 °F 86% 30.10 in 0.8 mi ENE 5.8 mph - 0.00 in Snow Light Snow
7:27 PM 24.8 °F 19.1 °F 21.2 °F 86% 30.11 in 1.0 mi NE 4.6 mph - 0.00 in Snow Light Snow
7:35 PM 24.8 °F 20.5 °F 21.2 °F 86% 30.10 in 1.2 mi ENE 3.5 mph - 0.00 in Snow Light Snow
7:47 PM 24.8 °F - 21.2 °F 86% 30.11 in 2.0 mi Calm Calm - 0.00 in Snow Light Snow
7:53 PM 24.1 °F - 21.9 °F 91% 30.25 in 2.5 mi Calm Calm - 0.00 in Snow Light Snow
8:09 PM 24.8 °F - 23.0 °F 93% 30.11 in 5.0 mi Calm Calm - 0.00 in Snow Light Snow
8:51 PM 24.8 °F - 23.0 °F 93% 30.12 in 2.5 mi Calm Calm - 0.00 in Snow Light Snow
8:53 PM 24.1 °F - 23.0 °F 96% 30.27 in 2.5 mi Calm Calm - 0.00 in Snow Light Snow
9:01 PM 24.8 °F - 21.2 °F 86% 30.12 in 3.0 mi Calm Calm - 0.00 in Snow Light Snow
9:27 PM 24.8 °F 19.1 °F 21.2 °F 86% 30.13 in 1.8 mi West 4.6 mph - 0.00 in Snow Light Snow
9:48 PM 24.8 °F 20.5 °F 21.2 °F 86% 30.13 in 1.2 mi WSW 3.5 mph - 0.00 in Snow Light Snow
9:53 PM 24.1 °F 19.7 °F 21.9 °F 91% 30.27 in 1.5 mi WSW 3.5 mph - 0.00 in Snow Light Snow
10:22 PM 24.8 °F 20.5 °F 23.0 °F 93% 30.13 in 2.5 mi SW 3.5 mph - 0.00 in Snow Light Snow
10:28 PM 24.8 °F - 23.0 °F 93% 30.14 in 3.0 mi Calm Calm - 0.00 in Snow Light Snow
10:53 PM 23.0 °F 15.8 °F 21.0 °F 92% 30.26 in 5.0 mi WSW 5.8 mph - 0.00 in   Overcast
11:53 PM 25.0 °F - 23.0 °F 92% 30.25 in 10.0 mi Calm Calm - N/A   Overcast